Location: Delia
(51.6321°N, 112.3740°W)
Time: 17:51:36
(UTC+00:00)

X-37B - Pass Details

Date: 11 December 2021
Orbit: 334 x 337 km, 45.0° (Epoch: 11 January)

Event Time Altitude Azimuth Distance (km) Brightness Sun altitude
Rises 00:15:05 0° 213° (SSW) 2,097 5.5 -8.1°
Reaches altitude 10° 00:18:16 10° 173° (S) 1,264 3.4 -8.5°
Maximum altitude 00:19:04 11° 157° (SSE) 1,217 3.1 -8.6°
Drops below altitude 10° 00:19:52 10° 140° (SE) 1,266 3.0 -8.7°
Enters shadow 00:21:39 - 113° (ESE) 1,648 3.4 -9.0°
